N9522S RPLS-RPLL

Flight info

Callsign N9522S
Flight time 0h -12m
Altitude 3000
Route RPLS RPLL
Aircraft C172/L-V/N

Departure

Time 2026-04-22 08:14
Airport Danilo Atienza Air Base (RPLS)

Arrival

Time 2026-04-22 08:02
Airport Ninoy Aquino International Airport (RPLL)
Time Latitude Longitude Altitude Speed Heading
2026-04-22 08:01 14.49122 120.89578 11 ft 0 kts 338°
2026-04-22 08:12 14.49141 120.89563 12 ft 7 kts 301°
2026-04-22 08:12 14.49168 120.89525 12 ft 8 kts 358°
2026-04-22 08:12 14.49182 120.89531 13 ft 0 kts 56°
2026-04-22 08:13 14.49217 120.89615 12 ft 37 kts 68°
2026-04-22 08:13 14.49377 120.90011 74 ft 71 kts 67°
2026-04-22 08:14 14.49536 120.90503 308 ft 73 kts 76°
2026-04-22 08:14 14.49784 120.90944 569 ft 72 kts 40°
2026-04-22 08:14 14.50228 120.91204 754 ft 76 kts 14°
2026-04-22 08:14 14.50753 120.91146 957 ft 80 kts 329°
2026-04-22 08:15 14.51175 120.90791 1171 ft 81 kts 318°
2026-04-22 08:15 14.51575 120.90412 1444 ft 74 kts 313°
2026-04-22 08:15 14.51964 120.90051 1640 ft 76 kts 321°
2026-04-22 08:15 14.52375 120.89704 1856 ft 77 kts 315°
2026-04-22 08:16 14.52738 120.89282 2040 ft 80 kts 314°
2026-04-22 08:16 14.53154 120.88916 2270 ft 78 kts 317°
2026-04-22 08:16 14.53548 120.88503 2437 ft 83 kts 312°
2026-04-22 08:16 14.53960 120.88070 2616 ft 85 kts 315°
2026-04-22 08:17 14.54377 120.87676 2872 ft 78 kts 314°
2026-04-22 08:17 14.54790 120.87290 3046 ft 81 kts 318°
2026-04-22 08:17 14.55229 120.86895 3142 ft 93 kts 315°
2026-04-22 08:17 14.55718 120.86432 3239 ft 96 kts 316°
2026-04-22 08:18 14.56242 120.85930 3215 ft 108 kts 316°
2026-04-22 08:18 14.56814 120.85399 3199 ft 113 kts 316°
2026-04-22 08:18 14.57396 120.84846 3188 ft 115 kts 317°
2026-04-22 08:18 14.57934 120.84274 3223 ft 111 kts 303°
2026-04-22 08:19 14.58147 120.83913 3212 ft 112 kts 298°
2026-04-22 08:19 14.58443 120.83190 3204 ft 112 kts 285°
2026-04-22 08:19 14.58510 120.82407 3270 ft 108 kts 262°
2026-04-22 08:20 14.58217 120.81695 3241 ft 109 kts 236°
2026-04-22 08:20 14.57715 120.81130 3196 ft 105 kts 225°
2026-04-22 08:20 14.57246 120.80558 3144 ft 104 kts 231°
2026-04-22 08:20 14.56779 120.80025 3147 ft 99 kts 227°
2026-04-22 08:21 14.56280 120.79536 3143 ft 100 kts 223°
2026-04-22 08:21 14.55773 120.79069 3177 ft 98 kts 221°
2026-04-22 08:21 14.55269 120.78595 3181 ft 99 kts 224°
2026-04-22 08:21 14.54769 120.78096 3182 ft 100 kts 225°
2026-04-22 08:22 14.54277 120.77576 3162 ft 103 kts 227°
2026-04-22 08:22 14.53780 120.77047 3178 ft 101 kts 224°
2026-04-22 08:22 14.53261 120.76551 3170 ft 102 kts 225°
2026-04-22 08:22 14.52760 120.76032 3171 ft 102 kts 226°
2026-04-22 08:23 14.52257 120.75513 3178 ft 102 kts 224°
2026-04-22 08:23 14.51731 120.75031 3182 ft 102 kts 219°
2026-04-22 08:23 14.51405 120.74765 3207 ft 107 kts 218°
2026-04-22 08:23 14.50770 120.74384 3307 ft 112 kts 191°
2026-04-22 08:24 14.49980 120.74588 3258 ft 125 kts 151°
2026-04-22 08:24 14.49236 120.75106 3194 ft 132 kts 146°
2026-04-22 08:24 14.48481 120.75637 3178 ft 132 kts 147°
2026-04-22 08:24 14.47728 120.76153 3213 ft 130 kts 146°
2026-04-22 08:25 14.46977 120.76688 3187 ft 131 kts 146°
2026-04-22 08:25 14.46224 120.77204 3193 ft 129 kts 149°
2026-04-22 08:25 14.45466 120.77697 3205 ft 129 kts 149°
2026-04-22 08:25 14.44707 120.78194 3180 ft 130 kts 147°
2026-04-22 08:26 14.43971 120.78729 3202 ft 129 kts 145°
2026-04-22 08:26 14.43534 120.79032 3249 ft 126 kts 149°
2026-04-22 08:26 14.42796 120.79477 3171 ft 133 kts 151°
2026-04-22 08:26 14.42009 120.79972 3168 ft 132 kts 150°
2026-04-22 08:27 14.41268 120.80513 3184 ft 129 kts 137°
2026-04-22 08:27 14.40688 120.81220 3176 ft 131 kts 127°
2026-04-22 08:27 14.40222 120.82025 3155 ft 128 kts 117°
2026-04-22 08:27 14.40049 120.82859 3130 ft 117 kts 80°
2026-04-22 08:28 14.40295 120.83620 2950 ft 107 kts 56°
2026-04-22 08:28 14.40786 120.84219 2701 ft 117 kts 45°
2026-04-22 08:28 14.41286 120.84883 2726 ft 110 kts 58°
2026-04-22 08:28 14.41681 120.85552 2603 ft 110 kts 58°
2026-04-22 08:29 14.42076 120.86230 2467 ft 112 kts 60°
2026-04-22 08:29 14.42463 120.86917 2369 ft 108 kts 63°
2026-04-22 08:29 14.42811 120.87629 2247 ft 119 kts 59°
2026-04-22 08:29 14.43299 120.88419 2146 ft 138 kts 59°
2026-04-22 08:30 14.43784 120.89309 2053 ft 145 kts 59°
2026-04-22 08:30 14.44310 120.90214 1955 ft 148 kts 58°
2026-04-22 08:30 14.44831 120.91113 1881 ft 146 kts 60°
2026-04-22 08:30 14.45312 120.91994 1887 ft 140 kts 63°
2026-04-22 08:31 14.45762 120.92916 1682 ft 149 kts 63°
2026-04-22 08:31 14.46272 120.93861 1468 ft 148 kts 57°
2026-04-22 08:31 14.47385 120.95599 1092 ft 146 kts 60°
2026-04-22 08:32 14.47825 120.96549 887 ft 146 kts 64°
2026-04-22 08:32 14.48345 120.97439 723 ft 143 kts 60°
2026-04-22 08:32 14.48795 120.98266 567 ft 115 kts 61°
2026-04-22 08:32 14.49046 120.98711 430 ft 105 kts 59°
2026-04-22 08:33 14.49523 120.99540 312 ft 89 kts 59°
2026-04-22 08:33 14.49799 121.00040 125 ft 71 kts 59°
2026-04-22 08:33 14.50014 121.00423 68 ft 51 kts 60°
2026-04-22 08:33 14.50217 121.00791 60 ft 57 kts 61°
2026-04-22 08:34 14.50371 121.01051 59 ft 30 kts 56°
2026-04-22 08:34 14.50502 121.01185 54 ft 23 kts 333°
2026-04-22 08:34 14.50547 121.01162 54 ft 0 kts 332°
2026-04-22 08:36 14.50553 121.01159 54 ft 0 kts 341°
2026-04-22 08:36 14.50561 121.01156 54 ft 0 kts 335°
2026-04-22 08:36 14.50564 121.01155 54 ft 0 kts 346°
2026-04-22 08:36 14.50584 121.01168 53 ft 7 kts 54°
2026-04-22 08:37 14.50645 121.01267 51 ft 26 kts 61°
2026-04-22 08:37 14.50752 121.01464 45 ft 37 kts 59°
2026-04-22 08:37 14.50848 121.01635 37 ft 21 kts 57°
2026-04-22 08:37 14.50898 121.01729 29 ft 0 kts 52°
2026-04-22 08:38 14.50900 121.01731 29 ft 1 kts 51°
2026-04-22 08:38 14.50903 121.01735 29 ft 0 kts 55°
2026-04-22 08:38 14.50904 121.01736 29 ft 1 kts 54°
2026-04-22 08:39 14.50926 121.01741 30 ft 11 kts 316°
2026-04-22 08:39 14.50968 121.01711 24 ft 0 kts 315°
2026-04-22 08:39 14.51000 121.01669 24 ft 6 kts 314°
2026-04-22 08:39 14.51023 121.01646 24 ft 0 kts 324°
2026-04-22 08:40 14.51043 121.01651 23 ft 9 kts 41°
2026-04-22 08:40 14.51077 121.01704 23 ft 7 kts 51°
2026-04-22 08:40 14.51165 121.01642 23 ft 28 kts 315°
2026-04-22 08:40 14.51344 121.01456 27 ft 44 kts 316°
2026-04-22 08:41 14.51503 121.01292 31 ft 53 kts 315°
2026-04-22 08:41 14.51738 121.01050 37 ft 36 kts 314°
2026-04-22 08:41 14.51859 121.00920 38 ft 29 kts 316°
2026-04-22 08:41 14.51997 121.00782 40 ft 29 kts 314°
2026-04-22 08:42 14.52089 121.00637 41 ft 20 kts 212°
2026-04-22 08:42 14.51941 121.00602 42 ft 24 kts 191°
2026-04-22 08:42 14.51806 121.00540 42 ft 20 kts 234°
2026-04-22 08:42 14.51734 121.00412 43 ft 22 kts 247°
2026-04-22 08:43 14.51704 121.00335 44 ft 8 kts 96°
2026-04-22 08:43 14.51700 121.00357 43 ft 0 kts 103°